Powrót do katalogu

COSMOS 917 DEB

AktywnyHEO
NORAD 27883·DEBRIS·🇷🇺 Russia

Wystrzelony Jun 16, 1977 z Plesetsk Cosmodrome

Loading…

Następne Przeloty (najbliższe 24 godziny)

TLE

ŚwieżeSource: Space-Track

Epoka: Sep 11, 2026, 19:35 UTC

1 27883U 77047F   26254.81647518  .00001039  00000-0  12818-2 0  9997
2 27883  60.0583 205.4365 7475938  58.6328 353.3436  2.02412802177151

Śledź COSMOS 917 DEB w czasie rzeczywistym z AllMySat

Download on the App Store